Zurück zum Katalog

SL-12 DEB

LostHEO
NORAD 41808·DEBRIS·🇷🇺 Russia

Gestartet Dec 25, 2006 von Baikonur Cosmodrome

Loading…

Nächste Überflüge (nächste 24 Stunden)

TLE

VeraltetSource: Space-Track

Epoche: Dec 7, 2016, 17:25 UTC

1 41808U 06062N   16342.72621571  .00000000  00000-0  00000+0 0  9991
2 41808  64.6620 208.7305 4990304  23.4653 353.1895  5.73249200  6129

Verfolge SL-12 DEB in Echtzeit mit AllMySat

Download on the App Store